{"data":{"norad_id":53765,"epoch":"2026-09-19T03:17:53.924352Z","epoch_age_seconds":135921,"freshness":"FRESH","line1":"1 53765U 22110A   26262.13742968  .00000013  00000+0  00000+0 0  9992","line2":"2 53765   0.0554 103.7799 0002855  42.6398 263.8461  1.00271180  7771","mean_motion":1.0027118,"eccentricity":0.0002855,"inclination_deg":0.0554,"raan_deg":103.7799,"arg_perigee_deg":42.6398,"mean_anomaly_deg":263.8461,"bstar":0,"rev_number":777,"period_min":1436.1055689182,"perigee_km":35774.726486109,"apogee_km":35798.802644903,"semimajor_km":42164.901565506,"source":"CELESTRAK","updated_at":"2026-09-20T09:00:35.305637Z"}}